Vertical_Velocity
-1 2 1 1 -1 -2 -2 0 0 -1 -1 -3 0 -3 1 -0 -0 -1 -2 1 4 -0 -0 -1 0 2 -1 -3 -2 -1 2 -1 -3 -4 -0 -1 -1 -3 -1 1 2 -2 -0 -3 1 -0 1
-3 3 -3 2 1 2 1 0 0 1 -0 -1 0 -1 2 -2 0 -3 -1 2 0 -2 1 -0 -1 -5 0 6 -8 -3 3 -3 -2 -2 -2 1 -3 1 -1 1 1 3 1 -2 -0 0 4
-1 -4 -3 3 -1 0 1 2 -1 2 -2 2 0 1 -1 -2 1 -4 -3 -1 -1 -2 4 -1 -1 -1 -2 4 -3 -3 3 -1 -5 -4 3 1 -1 3 -3 -0 0 1 2 0 -2 -3 -2
0 -2 -2 -1 -2 3 1 1 -7 4 -2 -0 -2 3 -2 -1 -4 -1 -2 2 -2 -1 2 3 -1 -0 0 -5 -0 -5 3 -2 -3 -7 2 3 -2 0 -3 -4 2 0 1 5 11 -3 2
1 1 0 2 -1 0 -3 4 -6 0 3 4 1 -1 0 -1 -2 -0 0 -4 2 -4 1 2 2 -3 -2 -2 -1 0 0 -1 -2 -7 0 -1 0 3 -2 -5 -2 1 -3 17 -5 8 -9
1 -2 1 0 -1 3 -2 -2 -2 1 -4 -0 5 -0 -1 0 -1 -1 -4 -2 -3 -1 -0 2 0 -4 -7 1 -4 4 -1 -1 -2 -4 -2 -2 -4 7 -4 -2 -2 -7 8 -1 4 -10 -5
5 4 3 -2 -4 3 0 -2 -2 -4 5 1 1 -1 -0 -2 -2 1 2 -1 -3 -9 6 2 -4 1 -1 -2 0 2 -0 -0 -1 -4 -7 -2 -7 12 -9 3 -4 0 -3 -1 -0 -1 -5
3 2 9 3 10 3 -1 -6 6 -3 -2 6 1 -7 -2 0 -2 -4 2 -4 3 -7 7 0 2 6 -2 -8 6 -3 2 -4 1 1 -2 -4 -2 -1 -3 -1 3 -3 -4 5 -4 3 -4
12 14 8 12 6 4 2 1 3 -1 0 3 6 -2 -2 -1 -4 -1 2 0 1 0 -12 20 -1 -2 6 -9 -0 -3 3 1 6 -0 1 -8 -13 4 -3 -2 -5 -5 3 -3 0 -7 1
4 4 11 6 9 1 5 -1 3 4 2 9 8 3 3 4 -0 5 1 4 -2 -5 -16 3 -4 -12 0 -4 -10 3 1 -1 5 1 1 -14 5 1 -7 2 -5 2 -3 -2 -2 -5 3
4 4 -5 -0 0 -5 2 5 4 5 6 4 3 2 -0 3 0 4 1 2 0 4 -21 -7 -4 1 8 -6 5 -1 3 0 3 3 -3 -5 -4 5 -5 -3 -3 -0 6 -3 -1 -1 -6
-5 -6 -1 -9 -4 -4 -5 -11 -6 2 0 -1 1 2 -1 -6 -2 5 2 2 -3 2 -25 -12 -5 3 6 -2 -2 -4 1 0 2 1 -2 -4 -1 2 -1 -3 -4 0 2 -1 -2 -2 -9
0 -1 0 -2 -7 -5 -1 2 -7 -3 -4 -6 2 -1 -0 0 -4 -1 -4 -2 -0 -16 1 -7 -2 -1 4 -1 -2 -3 2 0 -1 6 -1 -4 2 7 1 1 -5 -3 3 3 -5 -11 12
1 -1 -3 1 -3 0 -1 3 -0 -1 2 -2 -3 -4 2 -0 -3 2 2 -3 -22 -2 4 0 -3 6 6 -1 -3 -3 -1 3 -3 2 -5 -1 2 4 5 -1 -6 -0 -4 6 -13 8 11
-1 -0 -7 5 -1 -0 2 -1 -2 1 -1 -6 -3 2 2 2 1 6 4 -11 0 12 11 0 8 2 -2 10 4 1 -1 -1 4 1 -0 -5 10 3 -0 2 -3 -16 -3 4 -6 4 -12
3 -0 0 -5 2 -1 6 -3 3 2 -5 -2 2 4 5 -4 3 5 -4 -10 -1 11 5 12 2 -7 5 -4 9 0 0 -6 -1 -2 -3 -17 -5 -4 -2 3 2 -2 -4 2 6 -8 -7
5 2 0 -0 5 4 -7 -1 4 3 -6 -0 3 2 5 4 7 -4 -17 0 2 7 8 3 5 -2 1 1 3 0 6 -6 -2 -3 2 -0 -6 10 2 7 11 -11 -5 -0 3 -5 1
6 5 -2 7 -1 4 3 -2 1 7 -3 -2 2 -3 11 6 1 -8 -8 11 17 -0 5 -2 1 3 2 1 -1 3 7 4 6 -6 2 2 -12 -5 -1 4 8 -2 -5 -4 6 5 1
8 -7 -0 6 10 6 3 1 4 -3 8 -0 -3 7 0 2 -16 -7 5 3 -4 3 -2 1 -5 2 2 6 -7 -0 1 6 -1 0 -7 -5 -13 -14 -2 -5 5 -8 2 3 4 22 -16
6 5 -3 1 10 7 -1 8 4 2 12 12 -3 -0 3 -19 -3 -3 1 -4 -9 1 3 -1 4 2 -4 4 2 -4 5 -4 6 0 -0 -4 -1 -5 -9 10 -8 -8 -0 -1 5 -4 17
9 2 8 6 2 5 1 8 4 18 22 10 6 -13 2 -18 -1 14 2 4 5 -9 6 5 -0 4 4 3 1 3 -2 -1 4 -3 -1 -6 -7 2 -1 3 0 0 -6 3 -3 -5 -8
-14 -4 0 6 10 -2 11 8 15 14 0 6 2 -14 3 -1 3 5 -7 0 2 4 -3 4 -1 2 6 0 1 -4 -1 -2 -2 1 -2 -0 -11 0 -11 7 1 -14 -16 4 -4 5 -9
3 -1 2 5 -5 1 2 -1 14 12 46 -6 -6 2 -1 -8 2 -5 4 23 11 7 3 3 2 2 -2 8 -6 -4 -5 -5 -1 -1 4 -3 -3 7 -32 10 5 -35 13 -3 -2 3 8
4 -1 1 2 -1 3 3 13 8 10 1 14 27 17 9 -11 -8 1 14 7 3 9 -1 -3 0 2 8 6 -1 -1 -7 -7 -2 5 3 8 3 6 -26 13 -22 6 -11 2 5 8 9
1 1 -3 -8 -1 0 -4 -10 -4 4 6 3 9 4 -4 -12 -1 -8 -3 8 11 -0 2 1 5 8 -3 -2 -0 -9 4 -11 12 1 0 0 3 -2 -13 5 -4 -32 4 6 7 1 -1
2 1 2 -4 -1 -3 -0 3 -3 1 24 34 -3 37 -5 0 -24 17 -5 4 2 -1 -5 2 8 1 -3 2 5 -18 -12 8 -3 -7 7 4 -1 5 10 -6 -18 4 2 7 10 -32 10
1 0 1 2 -1 -8 -5 -9 -4 -0 18 -3 26 13 8 -4 -8 -1 2 1 5 2 4 -2 8 3 -8 2 -2 -9 -14 13 -28 -6 6 -0 4 -3 1 -1 -31 3 6 10 -11 13 -0
-0 0 1 1 1 2 0 3 9 4 2 12 -1 13 18 9 -7 -12 -4 5 5 2 5 5 -1 -1 -4 -5 2 4 -16 0 -17 10 3 -1 1 5 6 -2 -18 16 -1 -6 4 7 3
2 4 4 0 1 6 4 9 22 3 7 2 8 3 5 26 -7 -13 -2 -5 1 6 5 4 -1 2 1 -3 -5 4 -7 -1 5 -10 -0 -17 -0 4 -7 8 7 -1 2 -4 -1 -1 -2
Height
5756 5759 5762 5765 5768 5770 5773 5777 5780 5783 5785 5788 5789 5792 5795 5797 5799 5801 5803 5804 5805 5807 5807 5808 5809 5809 5811 5811 5811 5810 5811 5811 5811 5811 5813 5812 5813 5813 5813 5814 5813 5813 5813 5812 5812 5811 5811
5745 5747 5750 5753 5756 5759 5761 5766 5769 5772 5773 5776 5778 5781 5785 5787 5790 5792 5795 5796 5797 5798 5799 5800 5800 5801 5802 5803 5802 5801 5802 5803 5803 5804 5804 5805 5805 5805 5805 5805 5806 5807 5806 5805 5804 5804 5805
5732 5735 5738 5741 5745 5747 5751 5754 5756 5761 5760 5763 5766 5770 5773 5775 5780 5783 5785 5787 5789 5789 5790 5792 5793 5794 5794 5796 5794 5795 5795 5795 5796 5796 5796 5797 5797 5796 5797 5797 5798 5797 5798 5798 5797 5797 5797
5718 5721 5726 5728 5732 5736 5740 5743 5746 5748 5750 5753 5756 5760 5763 5763 5768 5771 5775 5776 5779 5781 5782 5783 5784 5787 5787 5787 5787 5788 5788 5788 5788 5788 5788 5789 5789 5789 5789 5790 5790 5789 5790 5791 5789 5790 5791
5705 5708 5711 5714 5718 5721 5726 5730 5734 5738 5740 5743 5748 5750 5751 5756 5759 5760 5764 5766 5769 5772 5773 5774 5776 5778 5780 5779 5779 5780 5779 5779 5780 5779 5780 5781 5780 5781 5782 5781 5780 5780 5781 5782 5780 5782 5781
5689 5692 5695 5701 5704 5709 5712 5717 5720 5724 5728 5732 5735 5737 5741 5744 5747 5750 5752 5756 5758 5763 5764 5765 5766 5771 5771 5772 5770 5771 5771 5770 5770 5771 5773 5774 5772 5772 5773 5771 5773 5772 5773 5771 5770 5770 5768
5673 5678 5681 5684 5689 5694 5699 5702 5706 5710 5714 5718 5721 5724 5728 5732 5736 5738 5742 5746 5749 5752 5753 5755 5758 5762 5762 5761 5761 5761 5761 5760 5761 5763 5764 5765 5764 5765 5763 5764 5764 5764 5762 5760 5760 5758 5758
5654 5660 5666 5670 5674 5677 5682 5688 5693 5697 5700 5704 5708 5710 5713 5718 5722 5726 5730 5733 5737 5741 5744 5745 5746 5749 5750 5751 5751 5750 5751 5752 5752 5753 5754 5755 5754 5753 5754 5754 5755 5754 5752 5752 5750 5748 5748
5635 5641 5647 5651 5656 5661 5666 5672 5677 5682 5686 5691 5693 5696 5699 5704 5708 5713 5717 5720 5722 5727 5729 5737 5736 5738 5738 5739 5739 5739 5741 5742 5743 5744 5744 5744 5744 5745 5745 5745 5745 5743 5742 5741 5741 5739 5737
5616 5619 5626 5630 5635 5643 5648 5654 5661 5666 5671 5675 5679 5681 5685 5690 5697 5698 5702 5706 5709 5710 5713 5721 5723 5725 5724 5726 5727 5729 5731 5733 5734 5734 5733 5733 5735 5734 5733 5733 5733 5733 5732 5731 5730 5729 5728
5592 5599 5604 5611 5617 5623 5629 5635 5641 5648 5653 5658 5662 5665 5669 5673 5679 5684 5687 5690 5694 5699 5701 5707 5711 5713 5712 5715 5717 5718 5720 5720 5720 5722 5723 5723 5723 5721 5720 5719 5720 5721 5720 5720 5718 5717 5716
5573 5577 5584 5591 5597 5604 5611 5615 5622 5629 5635 5639 5644 5648 5653 5659 5666 5670 5673 5676 5681 5688 5689 5694 5696 5697 5697 5702 5704 5706 5709 5709 5709 5710 5708 5710 5710 5709 5708 5708 5708 5709 5708 5707 5706 5706 5707
5555 5561 5568 5573 5580 5586 5593 5600 5605 5612 5616 5623 5629 5633 5636 5641 5650 5656 5660 5663 5667 5674 5684 5681 5685 5686 5684 5686 5692 5695 5697 5696 5696 5697 5697 5698 5699 5697 5696 5696 5696 5697 5697 5696 5695 5693 5696
5538 5543 5550 5557 5564 5570 5577 5583 5589 5595 5600 5607 5613 5620 5624 5626 5631 5637 5642 5647 5655 5667 5668 5668 5672 5673 5674 5675 5677 5678 5680 5682 5682 5684 5684 5686 5688 5687 5684 5684 5685 5685 5686 5686 5683 5684 5683
5518 5524 5532 5542 5548 5555 5560 5566 5572 5578 5586 5592 5600 5604 5609 5613 5618 5622 5626 5629 5647 5651 5655 5655 5658 5658 5661 5662 5664 5666 5668 5671 5671 5672 5674 5674 5677 5675 5676 5676 5676 5672 5674 5676 5671 5670 5668
5497 5504 5513 5522 5531 5539 5545 5552 5559 5563 5569 5578 5584 5590 5594 5598 5603 5607 5611 5623 5633 5636 5640 5642 5644 5646 5650 5651 5653 5655 5654 5655 5657 5658 5660 5662 5665 5665 5664 5665 5665 5665 5665 5666 5664 5660 5658
5477 5483 5494 5504 5513 5523 5527 5535 5543 5547 5553 5563 5570 5575 5580 5585 5587 5591 5601 5613 5618 5622 5627 5629 5632 5632 5636 5638 5640 5643 5644 5642 5644 5646 5651 5652 5653 5655 5653 5654 5656 5653 5655 5656 5654 5652 5650
5458 5465 5476 5487 5496 5503 5511 5520 5527 5533 5539 5542 5555 5560 5565 5570 5575 5580 5596 5600 5607 5609 5613 5615 5618 5621 5624 5626 5629 5630 5632 5632 5634 5637 5639 5638 5639 5643 5643 5642 5644 5643 5645 5645 5642 5644 5640
5440 5447 5459 5472 5480 5487 5497 5504 5513 5517 5525 5528 5538 5545 5550 5555 5563 5573 5583 5586 5591 5597 5599 5602 5605 5609 5612 5616 5616 5618 5620 5625 5625 5627 5627 5628 5628 5629 5632 5632 5633 5632 5634 5633 5633 5632 5631
5422 5431 5442 5454 5465 5473 5484 5493 5499 5506 5515 5514 5522 5527 5532 5541 5556 5563 5568 5574 5580 5584 5586 5589 5594 5598 5602 5603 5603 5607 5611 5613 5614 5614 5616 5616 5620 5621 5622 5624 5623 5624 5625 5624 5623 5620 5622
5405 5414 5425 5435 5447 5459 5470 5480 5488 5496 5499 5502 5506 5509 5524 5532 5546 5551 5554 5566 5570 5573 5575 5579 5584 5589 5590 5591 5594 5597 5600 5600 5602 5603 5605 5607 5610 5609 5610 5612 5611 5611 5613 5614 5612 5614 5609
5389 5400 5411 5421 5430 5442 5456 5464 5476 5480 5487 5490 5494 5499 5513 5522 5530 5536 5541 5554 5556 5558 5562 5566 5573 5576 5577 5581 5584 5584 5586 5589 5592 5595 5596 5597 5600 5599 5601 5602 5601 5600 5603 5604 5603 5603 5599
5373 5382 5394 5405 5416 5427 5439 5451 5461 5468 5473 5475 5482 5491 5499 5507 5516 5522 5538 5541 5543 5545 5550 5555 5559 5562 5565 5569 5570 5573 5575 5579 5585 5586 5586 5589 5589 5589 5592 5590 5589 5589 5597 5593 5591 5591 5590
5360 5369 5379 5389 5400 5412 5424 5434 5445 5454 5462 5468 5478 5484 5488 5495 5502 5518 5521 5524 5529 5534 5539 5542 5548 5551 5554 5556 5559 5562 5566 5569 5574 5577 5577 5580 5580 5579 5579 5580 5575 5583 5582 5581 5579 5581 5580
5348 5355 5364 5375 5385 5396 5408 5420 5430 5442 5452 5459 5467 5473 5479 5485 5495 5500 5508 5514 5516 5521 5528 5532 5538 5540 5541 5546 5549 5551 5556 5560 5565 5567 5568 5569 5569 5566 5565 5566 5566 5572 5570 5570 5567 5571 5570
5332 5341 5351 5360 5370 5381 5392 5403 5415 5430 5442 5447 5457 5463 5471 5478 5485 5492 5496 5501 5506 5511 5516 5522 5526 5527 5531 5536 5538 5541 5545 5551 5554 5555 5558 5558 5557 5555 5557 5553 5554 5562 5559 5559 5558 5559 5559
5323 5330 5337 5345 5353 5364 5378 5388 5402 5415 5426 5438 5444 5453 5462 5468 5475 5481 5487 5492 5497 5502 5507 5510 5515 5518 5521 5526 5528 5532 5536 5540 5540 5544 5548 5546 5545 5545 5546 5543 5547 5548 5548 5550 5550 5553 5548
5318 5324 5330 5336 5343 5353 5365 5377 5392 5404 5416 5426 5437 5446 5453 5459 5467 5474 5477 5484 5489 5493 5497 5501 5504 5507 5513 5516 5520 5523 5525 5527 5528 5534 5534 5535 5535 5537 5537 5537 5538 5540 5540 5541 5541 5539 5539
5315 5321 5326 5331 5338 5346 5357 5371 5383 5396 5407 5418 5427 5437 5444 5451 5456 5466 5471 5476 5480 5484 5489 5492 5497 5500 5505 5510 5513 5516 5517 5519 5520 5521 5523 5524 5527 5528 5529 5531 5530 5531 5532 5531 5532 5532 5530